Flag Weather past 2 weeks in Cambridge, England, United Kingdom

Now
63 °F

Scattered clouds.


Feels Like: 63 °F
Forecast: N/A
Wind: 8 mph from Southeast

Location: Cambridge Airport

Current Time: Oct 30, 2014 at 4:24:46 PM

Latest Report: Oct 30, 2014 at 3:50 PM


Visibility: N/A

Pressure: 30.04 "Hg

Humidity: 83%

Dew point: 57 °F

Location of CambridgeLocation

Historic Weather in Cambridge — Graph

°F

Cambridge temperature yesterday

Maximum temperature yesterday: 55 °F (at 10:20 AM)
Minimum temperature yesterday: 50 °F (at 5:20 PM)
Average temperature yesterday: 53 °F

Past Weeks' High & Low Weather Summary

 TemperatureHumidityPressure
High66 °F (Oct 17, 1:20 PM)100% (Oct 16, 6:50 AM)30.24 "Hg (Oct 16, 6:50 AM)
Low41 °F (Oct 25, 7:20 AM)51% (Oct 21, 3:50 PM)29.47 "Hg (Oct 21, 6:50 AM)
Average58 °F80%29.92 "Hg
* Reported Oct 15 4:20 PM — Oct 30 3:20 PM, Cambridge, Weather by CustomWeather, © 2014

Note: Actual official high and low records may vary slightly from our data, if they occured in-between our weather recording intervals... More about our weather records

Advertising

Cambridge weather history for previous 24 hours

 ConditionsComfort  
Time TempWeatherWind HumidityBarometerVisibility
3:20 PM
Oct 30
63 °FPartly sunny.8 mph83%30.07 "HgN/A
2:50 PM63 °FBroken clouds.7 mph83%30.07 "Hg6 mi
2:20 PM63 °FPartly sunny.8 mph83%30.07 "Hg6 mi
1:20 PM63 °FPartly sunny.8 mph83%30.07 "HgN/A
12:50 PM63 °FPartly sunny.9 mph83%30.07 "HgN/A
12:20 PM63 °FPartly sunny.10 mph83%30.07 "HgN/A
11:50 AM64 °FPartly sunny.9 mph83%30.07 "HgN/A
11:20 AM64 °FPassing clouds.9 mph83%30.07 "Hg6 mi
10:50 AM63 °FPassing clouds.12 mph83%30.07 "Hg4 mi
10:20 AM63 °FPassing clouds.10 mph88%30.04 "Hg4 mi
9:50 AM61 °FClear.10 mph94%30.04 "Hg4 mi
9:20 AM59 °FFog.9 mph94%30.07 "Hg3 mi
8:50 AM59 °FFog.8 mph94%30.07 "Hg2 mi
8:20 AM59 °FFog.8 mph94%30.07 "Hg2 mi
7:50 AM59 °FFog.8 mph94%30.04 "Hg2 mi
7:20 PM
Oct 29
50 °FLight rain. Passing clouds.3 mph100%30.07 "Hg4 mi
6:50 PM50 °FLight rain. Passing clouds.5 mph100%30.07 "Hg4 mi
6:20 PM50 °FPartly cloudy.6 mph100%30.07 "Hg4 mi
5:50 PM50 °FPartly cloudy.6 mph100%30.07 "Hg4 mi
5:20 PM50 °FPartly cloudy.6 mph100%30.07 "Hg4 mi
4:50 PM52 °FDrizzle. Fog.7 mph94%30.07 "Hg2 mi
4:20 PM52 °FDrizzle. Fog.6 mph94%30.07 "Hg2 mi
Weather by CustomWeather, © 2014

See weather overviewHow to use our weather pages